Waarnemingen

Advertentie
Mijn weer
Exeter Airport No. 2, Groot Brittannië (3844): temperatuur & dauwpunt: 14.10.2018 20:00:00 - 20.10.2018 20:00:00 (BST)Exeter Airport No. 2, Groot Brittannië (3844): windsnelheid: 14.10.2018 20:00:00 - 20.10.2018 20:00:00 (BST)Exeter Airport No. 2, Groot Brittannië (3844): windrichting: 14.10.2018 20:00:00 - 20.10.2018 20:00:00 (BST)Exeter Airport No. 2, Groot Brittannië (3844): luchtdruk: 14.10.2018 20:00:00 - 20.10.2018 20:00:00 (BST)Exeter Airport No. 2, Groot Brittannië (3844): zicht: 14.10.2018 20:00:00 - 20.10.2018 20:00:00 (BST)Exeter Airport No. 2, Groot Brittannië (3844): Zonneschijnduur: 14.10.2018 20:00:00 - 20.10.2018 20:00:00 (BST)Exeter Airport No. 2, Groot Brittannië (3844): neerslag: 14.10.2018 20:00:00 - 20.10.2018 20:00:00 (BST)
Datum & Tijd tt [°C] td [°C] ff [km/u] ff [kn] dd ppp [hPa] vv [km] sd [min] rr [mm]
20.10.2018 20:00:00 9,4 8,2 5 3 NO 1031,3 12 0 0,0
20.10.2018 19:00:00 10,6 8,2 0 0 N 1030,9 21 0 0,0
20.10.2018 18:00:00 14,4 9,5 5 3 ZZW 1030,7 0,7 54 0,0
20.10.2018 17:00:00 16,2 9,9 9 5 ZZW 1030,7 2,5 60 0,0
20.10.2018 16:00:00 17,0 9,7 9 5 ZZW 1030,8 7 54 0,0
20.10.2018 15:00:00 17,5 9,7 5 3 ZW 1031,2 14 60 0,0
20.10.2018 14:00:00 17,2 9,7 8 4 Z 1031,6 27 60 0,0
20.10.2018 13:00:00 16,4 10,1 4 2 W 1032,3 40 60 0,0
20.10.2018 12:00:00 14,6 11,6 4 2 Z 1032,9 24 60 0,0
20.10.2018 11:00:00 11,0 9,8 4 2 NNW 1033,0 19 60 -
20.10.2018 10:00:00 8,0 7,9 4 2 N 1032,5 10 48 0,0
20.10.2018 09:00:00 5,0 4,9 2 1 NW 1032,2 6 6 0,0
20.10.2018 08:00:00 5,0 5,0 2 1 OZO 1031,7 5 0 0,0
20.10.2018 07:00:00 5,4 5,4 8 4 N 1031,5 5 0 0,0
20.10.2018 06:00:00 5,5 5,5 4 2 N 1031,0 0,4 0 0,0
20.10.2018 05:00:00 4,8 4,8 4 2 ONO 1029,9 2,2 0 0,0
20.10.2018 04:00:00 4,4 4,3 2 1 N 1029,8 1,1 0 0,0
20.10.2018 03:00:00 5,4 5,4 2 1 ONO 1029,7 0,1 0 0,0
20.10.2018 02:00:00 6,6 6,6 4 2 NNO 1029,8 1,4 0 0,0
20.10.2018 01:00:00 4,8 4,4 2 1 NNO 1029,9 0,1 - 0,0
20.10.2018 00:00:00 7,5 7,5 4 2 O 1029,3 2,2 0 0,0
19.10.2018 23:00:00 7,7 7,3 5 3 O 1029,3 0,3 0 0,0
19.10.2018 22:00:00 9,2 8,1 4 2 WNW 1028,7 8 0 0,0
19.10.2018 21:00:00 11,1 10,4 4 2 O 1028,6 15 0 0,0
19.10.2018 20:00:00 11,6 10,2 2 1 NW 1028,2 14 0 0,0
19.10.2018 19:00:00 13,4 11,8 2 1 ZZO 1027,6 20 0 0,0
19.10.2018 18:00:00 14,4 11,6 2 1 ZO 1027,1 23 0 0,0
19.10.2018 17:00:00 15,5 11,4 5 3 ZO 1026,5 30 0 0,0
19.10.2018 16:00:00 16,3 9,9 4 2 N 1026,3 30 0 0,0
19.10.2018 15:00:00 16,4 9,5 4 2 ONO 1026,2 30 36 0,0
19.10.2018 14:00:00 16,6 10,7 4 2 N 1026,2 30 60 0,0
19.10.2018 13:00:00 15,4 11,0 4 2 WNW 1026,7 25 60 0,0
19.10.2018 12:00:00 12,6 9,6 4 2 N 1026,9 21 60 0,0
19.10.2018 11:00:00 11,1 9,5 4 2 W 1026,6 17 60 0,0
19.10.2018 10:00:00 8,0 8,0 2 1 N 1026,7 9 54 0,0
19.10.2018 09:00:00 5,1 5,1 4 2 O 1026,4 0,8 6 0,0
19.10.2018 08:00:00 3,5 3,4 4 2 ONO 1026,1 0,2 0 0,0
19.10.2018 07:00:00 3,5 3,4 4 2 ONO 1026,0 0,3 0 0,0
19.10.2018 06:00:00 3,0 2,7 4 2 NO 1025,7 0,3 0 0,0
19.10.2018 05:00:00 5,2 5,2 2 1 NNW 1025,9 0,1 0 0,0
19.10.2018 04:00:00 5,0 4,9 4 2 NNO 1025,8 1,7 0 0,0
19.10.2018 03:00:00 5,2 5,0 4 2 NO 1026,0 0,4 0 0,0
19.10.2018 02:00:00 6,6 6,5 4 2 O 1026,1 4,1 0 0,0
19.10.2018 01:00:00 6,2 5,9 2 1 O 1026,6 3,1 - 0,0
19.10.2018 00:00:00 5,9 5,4 2 1 NO 1026,3 1,2 0 0,0
18.10.2018 23:00:00 7,3 6,3 2 1 NO 1026,1 7 0 0,0
18.10.2018 22:00:00 9,2 8,0 5 3 NNO 1026,0 13 0 0,0
18.10.2018 21:00:00 8,2 7,1 0 0 N 1026,1 11 0 0,0
18.10.2018 20:00:00 9,4 8,0 4 2 ONO 1026,1 13 0 0,0
18.10.2018 19:00:00 10,8 8,4 4 2 NO 1025,8 16 0 0,0
18.10.2018 18:00:00 13,2 8,9 8 4 NO 1025,6 23 48 0,0
18.10.2018 17:00:00 14,6 9,0 15 8 ONO 1025,6 27 60 0,0
18.10.2018 16:00:00 15,0 8,7 13 7 NO 1025,5 30 60 0,0
18.10.2018 15:00:00 15,2 8,9 15 8 ONO 1025,8 30 60 0,0
18.10.2018 14:00:00 15,1 8,7 13 7 NO 1026,3 35 60 0,0
18.10.2018 13:00:00 15,0 9,4 11 6 NO 1026,7 30 60 0,0
18.10.2018 12:00:00 14,0 9,9 9 5 NO 1027,2 25 60 0,0
18.10.2018 11:00:00 12,6 9,3 11 6 NNO 1027,4 25 36 0,0
18.10.2018 10:00:00 10,7 8,0 8 4 NNO 1027,3 26 0 0,0
18.10.2018 09:00:00 10,6 7,4 9 5 NNO 1027,0 30 6 0,0
18.10.2018 08:00:00 9,6 6,4 8 4 NO 1026,4 30 0 0,0
18.10.2018 07:00:00 10,9 6,9 8 4 NO 1025,8 30 0 0,0
18.10.2018 06:00:00 11,4 8,6 8 4 NNO 1025,4 28 0 0,0
18.10.2018 05:00:00 11,8 9,2 8 4 NO 1025,5 23 0 0,0
18.10.2018 04:00:00 11,8 9,3 9 5 NNO 1025,5 22 0 0,0
18.10.2018 03:00:00 12,2 9,5 9 5 NNO 1025,3 22 0 0,0
18.10.2018 02:00:00 12,8 10,0 9 5 NNO 1024,9 19 0 0,0
18.10.2018 01:00:00 13,2 10,3 9 5 NO 1024,7 19 - 0,0
18.10.2018 00:00:00 13,3 11,3 8 4 N 1024,3 18 0 0,0
17.10.2018 23:00:00 13,4 11,1 9 5 NNO 1024,0 19 0 0,0
17.10.2018 22:00:00 12,8 10,7 0 0 N 1023,5 23 0 0,0
17.10.2018 21:00:00 13,1 10,4 5 3 NNW 1023,0 26 0 0,0
17.10.2018 20:00:00 13,1 10,3 5 3 N 1022,1 27 0 0,0
17.10.2018 19:00:00 13,2 10,2 5 3 N 1021,6 28 0 0,0
17.10.2018 18:00:00 13,5 9,5 5 3 N 1020,9 30 0 0,0
17.10.2018 17:00:00 13,4 9,6 8 4 NO 1020,3 30 0 0,0
17.10.2018 16:00:00 13,6 10,2 11 6 ONO 1019,8 35 0 0,0
17.10.2018 15:00:00 13,5 11,4 8 4 NNO 1019,7 8 0 0,0
17.10.2018 14:00:00 13,4 10,9 8 4 NNO 1019,5 19 0 0,0
17.10.2018 13:00:00 13,0 11,7 15 8 N 1019,5 6 0 0,0
17.10.2018 12:00:00 14,7 12,3 8 4 NNO 1019,1 22 0 0,0
17.10.2018 11:00:00 14,4 12,6 5 3 NNW 1018,7 35 0 0,0
17.10.2018 10:00:00 13,3 12,1 2 1 N 1018,4 30 0 0,0
17.10.2018 09:00:00 12,6 11,9 4 2 NNW 1018,0 10 0 0,0
17.10.2018 08:00:00 12,5 11,6 4 2 OZO 1017,5 26 0 0,0
17.10.2018 07:00:00 12,4 11,9 2 1 NNW 1017,1 21 0 0,0
17.10.2018 06:00:00 12,5 12,0 4 2 OZO 1016,8 10 0 0,0
17.10.2018 05:00:00 12,7 11,9 9 5 NW 1016,6 15 0 0,2
17.10.2018 04:00:00 13,7 12,5 11 6 Z 1016,3 27 0 0,0
17.10.2018 03:00:00 13,6 12,5 11 6 Z 1016,5 13 0 0,0
17.10.2018 02:00:00 13,3 12,3 9 5 Z 1016,6 14 0 0,0
17.10.2018 01:00:00 13,1 12,3 9 5 Z 1016,8 5 - 0,0
17.10.2018 00:00:00 13,0 11,5 8 4 Z 1017,0 8 0 0,0
16.10.2018 23:00:00 12,6 11,1 11 6 Z 1017,0 19 0 0,0
16.10.2018 22:00:00 11,6 10,5 9 5 Z 1017,1 19 0 0,0
16.10.2018 21:00:00 10,5 9,7 5 3 Z 1016,9 9 0 0,0
16.10.2018 20:00:00 11,2 9,7 9 5 ZZO 1016,8 24 0 0,0
16.10.2018 19:00:00 12,0 9,9 9 5 ZZW 1016,5 35 0 0,0
16.10.2018 18:00:00 14,0 11,1 9 5 ZW 1016,2 50 0 0,0
16.10.2018 17:00:00 14,0 11,9 8 4 Z 1015,9 40 0 0,0
16.10.2018 16:00:00 14,2 11,4 11 6 ZW 1015,9 45 0 0,0
16.10.2018 15:00:00 14,3 11,2 15 8 ZW 1015,9 40 0 0,0
16.10.2018 14:00:00 14,9 10,9 21 11 ZW 1015,6 50 24 0,0
16.10.2018 13:00:00 16,6 12,3 16 9 ZW 1015,3 50 36 0,0
16.10.2018 12:00:00 15,6 13,7 9 5 WZW 1015,4 28 0 0,0
16.10.2018 11:00:00 14,9 13,4 11 6 ZW 1015,2 22 0 0,0
16.10.2018 10:00:00 14,5 14,2 5 3 W 1014,8 4,8 0 0,0
16.10.2018 09:00:00 13,6 13,5 4 2 ZZW 1014,8 4,5 0 0,2
16.10.2018 08:00:00 13,1 12,9 11 6 O 1014,5 3,4 0 0,2
16.10.2018 07:00:00 13,1 12,8 4 2 NW 1014,2 2,2 0 0,0
16.10.2018 06:00:00 13,2 12,8 2 1 W 1013,7 4,2 0 0,0
16.10.2018 05:00:00 13,2 12,7 8 4 ONO 1013,3 5 0 0,0
16.10.2018 04:00:00 13,2 12,7 4 2 NW 1013,5 5 0 0,0
16.10.2018 03:00:00 13,3 12,7 4 2 NNO 1013,6 6 0 0,0
16.10.2018 02:00:00 12,8 12,5 2 1 ONO 1013,7 6 0 0,0
16.10.2018 01:00:00 12,2 11,9 4 2 NO 1013,6 3,6 - 0,0
16.10.2018 00:00:00 12,1 11,7 2 1 NNO 1014,0 3,7 0 0,0
15.10.2018 23:00:00 12,3 11,8 2 1 N 1014,0 4,7 0 0,0
15.10.2018 22:00:00 12,1 11,6 8 4 NNO 1013,5 6 0 0,0
15.10.2018 21:00:00 12,1 11,5 5 3 NO 1012,9 8 0 0,0
15.10.2018 20:00:00 11,5 11,1 4 2 N 1012,9 12 0 0,0
15.10.2018 19:00:00 11,3 10,8 8 4 NNO 1012,7 18 0 0,2
15.10.2018 18:00:00 11,2 10,8 5 3 NO 1012,5 4,6 0 0,8
15.10.2018 17:00:00 11,2 10,6 11 6 NNO 1012,0 2,3 0 0,2
15.10.2018 16:00:00 12,0 10,3 9 5 N 1011,2 35 0 0,0
15.10.2018 15:00:00 12,7 10,4 13 7 NO 1010,8 45 0 0,0
15.10.2018 14:00:00 12,7 10,5 21 11 NO 1010,4 50 18 0,0
15.10.2018 13:00:00 11,7 10,5 13 7 NO 1010,7 14 0 0,0
15.10.2018 12:00:00 10,8 10,0 11 6 NO 1010,7 4,5 0 0,0
15.10.2018 11:00:00 10,9 9,3 15 8 NNO 1010,2 45 0 0,0
15.10.2018 10:00:00 10,6 8,9 11 6 NNO 1009,8 45 0 0,0
15.10.2018 09:00:00 10,4 8,8 13 7 NO 1009,3 40 0 0,0
15.10.2018 08:00:00 9,9 8,7 11 6 NNO 1008,9 35 0 0,2
15.10.2018 07:00:00 9,6 8,9 11 6 NNO 1008,6 7 0 0,0
15.10.2018 06:00:00 9,7 8,6 9 5 NNO 1008,3 14 0 0,0
15.10.2018 05:00:00 9,5 8,6 11 6 NNO 1008,1 3,9 0 0,2
15.10.2018 04:00:00 9,7 8,1 15 8 NNO 1007,8 19 0 0,0
15.10.2018 03:00:00 9,9 7,6 16 9 NNO 1008,0 21 0 0,0
15.10.2018 02:00:00 9,9 7,4 15 8 NNO 1008,5 26 0 0,0
15.10.2018 01:00:00 9,9 7,1 15 8 N 1008,6 30 - 0,0
15.10.2018 00:00:00 9,9 7,2 9 5 NNO 1008,7 35 0 0,0
14.10.2018 23:00:00 10,1 7,1 9 5 NNO 1009,0 35 0 0,0
14.10.2018 22:00:00 10,2 7,0 13 7 NNO 1008,6 40 0 0,0
14.10.2018 21:00:00 10,4 7,1 11 6 NNO 1008,7 40 0 0,0
14.10.2018 20:00:00 10,9 7,3 11 6 NNO 1008,7 30 0 0,0

tt = temperatuur
td = dauwpunt
ff = windsnelheid
dd = windrichting
ppp = luchtdruk
vv = zicht
sd = Zonneschijnduur
rr = neerslag

Weerstations in de omgeving